Date,TemperatureHighF,TemperatureAvgF,TemperatureLowF,DewpointHighF,DewpointAvgF,DewpointLowF,HumidityHigh,HumidityAvg,HumidityLow,PressureMaxIn,PressureMinIn,WindSpeedMaxMPH,WindSpeedAvgMPH,GustSpeedMaxMPH,PrecipitationSumIn
2013-6-13,55.0,53.6,53.0,-99.9,-99.9,-99.9,0,0,100,0.00,40.00,0,-999,0,0.00
2013-6-14,73.0,59.6,51.0,-99.9,-99.9,-99.9,0,0,100,0.00,40.00,0,-999,0,0.06
2013-6-15,76.0,63.4,50.0,-99.9,-99.9,-99.9,0,0,100,0.00,40.00,0,-999,0,0.00
2013-6-16,74.0,60.0,47.0,-99.9,-99.9,-99.9,0,0,100,0.00,40.00,0,-999,0,0.00
2013-6-17,79.0,62.9,54.0,-99.9,-99.9,-99.9,0,0,100,0.00,40.00,0,-999,0,0.14
2013-6-18,61.0,57.5,52.0,-99.9,-99.9,-99.9,0,0,100,0.00,40.00,0,-999,0,0.09
2013-6-19,72.0,59.9,47.0,-99.9,-99.9,-99.9,0,0,100,0.00,40.00,0,-999,0,0.05
2013-6-20,77.0,58.1,42.0,-99.9,-99.9,-99.9,0,0,100,0.00,40.00,0,-999,0,0.00
2013-6-22,82.0,76.3,66.0,-99.9,-99.9,-99.9,0,0,100,0.00,40.00,0,-999,0,0.00
2013-6-23,86.0,71.5,63.0,-99.9,-99.9,-99.9,0,0,100,0.00,40.00,0,-999,0,0.10
2013-6-24,90.0,76.2,65.0,-99.9,-99.9,-99.9,0,0,100,0.00,40.00,0,-999,0,0.01
2013-6-25,89.0,74.5,65.0,-99.9,-99.9,-99.9,0,0,100,0.00,40.00,0,-999,0,0.68
2013-6-26,78.0,68.0,65.0,-99.9,-99.9,-99.9,0,0,100,0.00,40.00,0,-999,0,1.79
2013-6-27,71.0,64.6,61.0,-99.9,-99.9,-99.9,0,0,100,0.00,40.00,0,-999,0,0.03
2013-6-28,65.0,61.2,56.0,-99.9,-99.9,-99.9,0,0,100,0.00,40.00,0,-999,0,2.21
2013-6-29,82.0,71.3,63.0,-99.9,-99.9,-99.9,0,0,100,0.00,40.00,0,-999,0,1.03
2013-6-30,83.0,71.6,63.0,-99.9,-99.9,-99.9,0,0,100,0.00,40.00,0,-999,0,0.01
2013-7-1,75.0,70.0,65.0,-99.9,-99.9,-99.9,0,0,100,0.00,40.00,0,-999,0,0.19
2013-7-2,75.0,67.4,60.0,-99.9,-99.9,-99.9,0,0,100,0.00,40.00,0,-999,0,1.43
2013-7-3,85.0,71.0,60.0,-99.9,-99.9,-99.9,0,0,100,0.00,40.00,0,-999,0,1.44
2013-7-4,91.0,78.4,66.0,-99.9,-99.9,-99.9,0,0,100,0.00,40.00,0,-999,0,0.00
2013-7-5,92.0,80.0,71.0,-99.9,-99.9,-99.9,0,0,100,0.00,40.00,0,-999,0,0.00
2013-7-6,85.0,77.1,70.0,-99.9,-99.9,-99.9,0,0,100,0.00,40.00,0,-999,0,0.00
2013-7-7,89.0,75.3,66.0,-99.9,-99.9,-99.9,0,0,100,0.00,40.00,0,-999,0,0.05
2013-7-8,81.0,72.8,65.0,-99.9,-99.9,-99.9,0,0,100,0.00,40.00,0,-999,0,3.10
2013-7-9,74.0,67.9,64.0,-99.9,-99.9,-99.9,0,0,100,0.00,40.00,0,-999,0,1.46
2013-7-10,74.0,67.8,64.0,-99.9,-99.9,-99.9,0,0,100,0.00,40.00,0,-999,0,0.35
2013-7-11,82.0,71.4,63.0,-99.9,-99.9,-99.9,0,0,100,0.00,40.00,0,-999,0,0.01
2013-7-12,78.0,67.5,58.0,-99.9,-99.9,-99.9,0,0,100,0.00,40.00,0,-999,0,0.00
2013-7-13,77.0,68.2,57.0,-99.9,-99.9,-99.9,0,0,100,0.00,40.00,0,-999,0,0.00
2013-7-14,86.0,74.8,63.0,-99.9,-99.9,-99.9,0,0,100,0.00,40.00,0,-999,0,0.00
2013-7-15,89.0,75.3,66.0,-99.9,-99.9,-99.9,0,0,100,0.00,40.00,0,-999,0,0.00
2013-7-16,88.0,76.7,66.0,-99.9,-99.9,-99.9,0,0,100,0.00,40.00,0,-999,0,0.00
2013-7-17,91.0,76.4,65.0,-99.9,-99.9,-99.9,0,0,100,0.00,40.00,0,-999,0,0.00
2013-7-18,91.0,77.4,69.0,-99.9,-99.9,-99.9,0,0,100,0.00,40.00,0,-999,0,0.59
2013-7-19,92.0,79.2,67.0,-99.9,-99.9,-99.9,0,0,100,0.00,40.00,0,-999,0,0.60
2013-7-20,87.0,75.0,65.0,-99.9,-99.9,-99.9,0,0,100,0.00,40.00,0,-999,0,0.00
2013-7-21,80.0,70.3,62.0,-99.9,-99.9,-99.9,0,0,100,0.00,40.00,0,-999,0,0.00
2013-7-22,74.0,67.2,62.0,-99.9,-99.9,-99.9,0,0,100,0.00,40.00,0,-999,0,0.34
2013-7-23,72.0,65.4,62.0,-99.9,-99.9,-99.9,0,0,100,0.00,40.00,0,-999,0,1.98
2013-7-24,79.0,67.1,53.0,-99.9,-99.9,-99.9,0,0,100,0.00,40.00,0,-999,0,0.01
2013-7-25,69.0,59.4,47.0,-99.9,-99.9,-99.9,0,0,100,0.00,40.00,0,-999,0,0.00
2013-7-26,73.0,64.5,60.0,-99.9,-99.9,-99.9,0,0,100,0.00,40.00,0,-999,0,0.11
2013-7-27,82.0,68.0,55.0,-99.9,-99.9,-99.9,0,0,100,0.00,40.00,0,-999,0,0.05
2013-7-28,78.0,67.2,56.0,-99.9,-99.9,-99.9,0,0,100,0.00,40.00,0,-999,0,0.05
2013-7-29,81.0,69.0,62.0,-99.9,-99.9,-99.9,0,0,100,0.00,40.00,0,-999,0,0.06
2013-7-30,76.0,66.6,58.0,-99.9,-99.9,-99.9,0,0,100,0.00,40.00,0,-999,0,0.00
2013-7-31,80.0,66.9,55.0,-99.9,-99.9,-99.9,0,0,100,0.00,40.00,0,-999,0,0.00
2013-8-1,78.0,64.0,55.0,-99.9,-99.9,-99.9,0,0,100,0.00,40.00,0,-999,0,0.37
2013-8-2,80.0,68.6,60.0,-99.9,-99.9,-99.9,0,0,100,0.00,40.00,0,-999,0,0.29
2013-8-3,77.0,65.0,56.0,-99.9,-99.9,-99.9,0,0,100,0.00,40.00,0,-999,0,0.00
2013-8-4,74.0,62.2,53.0,-99.9,-99.9,-99.9,0,0,100,0.00,40.00,0,-999,0,0.00
2013-8-5,72.0,60.6,49.0,-99.9,-99.9,-99.9,0,0,100,0.00,40.00,0,-999,0,0.00
2013-8-6,75.0,60.1,45.0,-99.9,-99.9,-99.9,0,0,100,0.00,40.00,0,-999,0,0.00
2013-8-7,76.0,63.4,49.0,-99.9,-99.9,-99.9,0,0,100,0.00,40.00,0,-999,0,0.00
2013-8-8,81.0,69.3,60.0,-99.9,-99.9,-99.9,0,0,100,0.00,40.00,0,-999,0,0.00
2013-8-9,74.0,70.4,65.0,-99.9,-99.9,-99.9,0,0,100,0.00,40.00,0,-999,0,0.69
2013-8-10,78.0,68.8,55.0,-99.9,-99.9,-99.9,0,0,100,0.00,40.00,0,-999,0,0.09
2013-8-11,76.0,61.7,48.0,-99.9,-99.9,-99.9,0,0,100,0.00,40.00,0,-999,0,0.00
2013-8-12,80.0,65.6,54.0,-99.9,-99.9,-99.9,0,0,100,0.00,40.00,0,-999,0,0.00
2013-8-13,69.0,62.3,55.0,-99.9,-99.9,-99.9,0,0,100,0.00,40.00,0,-999,0,0.81
2013-8-14,70.0,62.0,54.0,-99.9,-99.9,-99.9,0,0,100,0.00,40.00,0,-999,0,0.02
2013-8-15,73.0,58.6,49.0,-99.9,-99.9,-99.9,0,0,100,0.00,40.00,0,-999,0,0.00
2013-8-16,74.0,60.3,48.0,-99.9,-99.9,-99.9,0,0,100,0.00,40.00,0,-999,0,0.00
2013-8-17,77.0,62.9,50.0,-99.9,-99.9,-99.9,0,0,100,0.00,40.00,0,-999,0,0.00
2013-8-18,77.0,63.6,52.0,-99.9,-99.9,-99.9,0,0,100,0.00,40.00,0,-999,0,0.00
2013-8-19,80.0,66.6,56.0,-99.9,-99.9,-99.9,0,0,100,0.00,40.00,0,-999,0,0.00
2013-8-20,83.0,68.7,59.0,-99.9,-99.9,-99.9,0,0,100,0.00,40.00,0,-999,0,0.00
2013-8-21,85.0,70.4,58.0,-99.9,-99.9,-99.9,0,0,100,0.00,40.00,0,-999,0,0.00
2013-8-22,86.0,72.6,60.0,-99.9,-99.9,-99.9,0,0,100,0.00,40.00,0,-999,0,0.00
2013-8-23,76.0,68.3,57.0,-99.9,-99.9,-99.9,0,0,100,0.00,40.00,0,-999,0,0.00
2013-8-24,77.0,60.2,44.0,-99.9,-99.9,-99.9,0,0,100,0.00,40.00,0,-999,0,0.00
2013-8-25,80.0,62.3,46.0,-99.9,-99.9,-99.9,0,0,100,0.00,40.00,0,-999,0,0.00
2013-8-26,78.0,68.1,60.0,-99.9,-99.9,-99.9,0,0,100,0.00,40.00,0,-999,0,0.12
2013-8-27,83.0,71.1,64.0,-99.9,-99.9,-99.9,0,0,100,0.00,40.00,0,-999,0,0.02
2013-8-28,83.0,74.3,64.0,-99.9,-99.9,-99.9,0,0,100,0.00,40.00,0,-999,0,1.52
2013-8-29,65.0,62.5,59.0,-99.9,-99.9,-99.9,0,0,100,0.00,40.00,0,-999,0,0.54
2013-8-30,83.0,68.6,59.0,-99.9,-99.9,-99.9,0,0,100,0.00,40.00,0,-999,0,0.01
2013-8-31,77.0,70.5,66.0,-99.9,-99.9,-99.9,0,0,100,0.00,40.00,0,-999,0,0.07
2013-9-1,82.0,72.9,66.0,-99.9,-99.9,-99.9,0,0,100,0.00,40.00,0,-999,0,0.07
2013-9-2,72.0,69.5,67.0,-99.9,-99.9,-99.9,0,0,100,0.00,40.00,0,-999,0,1.23
2013-9-3,74.0,67.3,58.0,-99.9,-99.9,-99.9,0,0,100,0.00,40.00,0,-999,0,0.97
2013-9-4,77.0,65.2,55.0,-99.9,-99.9,-99.9,0,0,100,0.00,40.00,0,-999,0,0.00
2013-9-5,67.0,58.7,45.0,-99.9,-99.9,-99.9,0,0,100,0.00,40.00,0,-999,0,0.00
2013-9-6,67.0,51.8,37.0,-99.9,-99.9,-99.9,0,0,100,0.00,40.00,0,-999,0,0.00
2013-9-7,73.0,57.6,43.0,-99.9,-99.9,-99.9,0,0,100,0.00,40.00,0,-999,0,0.00
2013-9-8,66.0,56.8,44.0,-99.9,-99.9,-99.9,0,0,100,0.00,40.00,0,-999,0,0.00
2013-9-9,69.0,52.9,38.0,-99.9,-99.9,-99.9,0,0,100,0.00,40.00,0,-999,0,0.00
2013-9-10,71.0,59.2,48.0,-99.9,-99.9,-99.9,0,0,100,0.00,40.00,0,-999,0,0.14
2013-9-11,91.0,76.1,65.0,-99.9,-99.9,-99.9,0,0,100,0.00,40.00,0,-999,0,0.06
2013-9-12,78.0,68.5,65.0,-99.9,-99.9,-99.9,0,0,100,0.00,40.00,0,-999,0,0.79
2013-9-13,71.0,64.1,55.0,-99.9,-99.9,-99.9,0,0,100,0.00,40.00,0,-999,0,0.44
2013-9-14,63.0,55.9,47.0,-99.9,-99.9,-99.9,0,0,100,0.00,40.00,0,-999,0,0.01
2013-9-15,69.0,51.7,41.0,-99.9,-99.9,-99.9,0,0,100,0.00,40.00,0,-999,0,0.00
2013-9-16,62.0,53.5,40.0,-99.9,-99.9,-99.9,0,0,100,0.00,40.00,0,-999,0,0.00
2013-9-17,62.0,47.0,34.0,-99.9,-99.9,-99.9,0,0,100,0.00,40.00,0,-999,0,0.00
2013-9-18,49.0,39.1,36.0,-99.9,-99.9,-99.9,0,0,100,0.00,40.00,0,-999,0,0.00
2013-9-19,76.0,57.1,42.0,-99.9,-99.9,-99.9,0,0,100,0.00,40.00,0,-999,0,0.00
2013-9-20,76.0,58.6,44.0,-99.9,-99.9,-99.9,0,0,100,0.00,40.00,0,-999,0,0.00
2013-9-21,73.0,60.4,48.0,-99.9,-99.9,-99.9,0,0,100,0.00,40.00,0,-999,0,0.00
2013-9-22,67.0,60.5,47.0,-99.9,-99.9,-99.9,0,0,100,0.00,40.00,0,-999,0,0.46
2013-9-23,55.0,47.9,41.0,-99.9,-99.9,-99.9,0,0,100,0.00,40.00,0,-999,0,0.05
2013-9-24,61.0,50.9,41.0,-99.9,-99.9,-99.9,0,0,100,0.00,40.00,0,-999,0,0.00
2013-9-25,65.0,53.9,44.0,-99.9,-99.9,-99.9,0,0,100,0.00,40.00,0,-999,0,0.00
2013-9-26,67.0,53.8,41.0,-99.9,-99.9,-99.9,0,0,100,0.00,40.00,0,-999,0,0.00
2013-9-27,65.0,55.6,48.0,-99.9,-99.9,-99.9,0,0,100,0.00,40.00,0,-999,0,0.00
2013-9-28,71.0,54.9,42.0,-99.9,-99.9,-99.9,0,0,100,0.00,40.00,0,-999,0,0.00
2013-9-29,69.0,52.9,41.0,-99.9,-99.9,-99.9,0,0,100,0.00,40.00,0,-999,0,0.00
2013-9-30,70.0,51.3,38.0,-99.9,-99.9,-99.9,0,0,100,0.00,40.00,0,-999,0,0.00
2013-10-1,62.0,56.3,47.0,-99.9,-99.9,-99.9,0,0,100,0.00,40.00,0,-999,0,0.00
2013-10-2,76.0,62.6,51.0,-99.9,-99.9,-99.9,0,0,100,0.00,40.00,0,-999,0,0.00
2013-10-3,73.0,60.6,49.0,-99.9,-99.9,-99.9,0,0,100,0.00,40.00,0,-999,0,0.00
2013-10-4,65.0,55.0,44.0,-99.9,-99.9,-99.9,0,0,100,0.00,40.00,0,-999,0,0.00
2013-10-5,62.0,58.2,55.0,-99.9,-99.9,-99.9,0,0,100,0.00,40.00,0,-999,0,0.00
2013-10-6,57.0,51.1,47.0,-99.9,-99.9,-99.9,0,0,100,0.00,40.00,0,-999,0,0.24
2013-10-7,70.0,56.2,50.0,-99.9,-99.9,-99.9,0,0,100,0.00,40.00,0,-999,0,0.55
2013-10-8,61.0,51.8,37.0,-99.9,-99.9,-99.9,0,0,100,0.00,40.00,0,-999,0,0.32
2013-10-9,62.0,43.9,31.0,-99.9,-99.9,-99.9,0,0,100,0.00,40.00,0,-999,0,0.00
2013-10-10,61.0,46.0,32.0,-99.9,-99.9,-99.9,0,0,100,0.00,40.00,0,-999,0,0.00
2013-10-11,66.0,50.9,40.0,-99.9,-99.9,-99.9,0,0,100,0.00,40.00,0,-999,0,0.00
2013-10-12,54.0,48.5,40.0,-99.9,-99.9,-99.9,0,0,100,0.00,40.00,0,-999,0,0.00
2013-10-13,56.0,46.7,36.0,-99.9,-99.9,-99.9,0,0,100,0.00,40.00,0,-999,0,0.00
2013-10-14,64.0,49.1,36.0,-99.9,-99.9,-99.9,0,0,100,0.00,40.00,0,-999,0,0.00
2013-10-15,61.0,56.0,49.0,-99.9,-99.9,-99.9,0,0,100,0.00,40.00,0,-999,0,0.00
2013-10-16,58.0,53.1,46.0,-99.9,-99.9,-99.9,0,0,100,0.00,40.00,0,-999,0,0.00
2013-10-17,71.0,55.3,46.0,-99.9,-99.9,-99.9,0,0,100,0.00,40.00,0,-999,0,0.00
2013-10-18,61.0,54.2,43.0,-99.9,-99.9,-99.9,0,0,100,0.00,40.00,0,-999,0,0.15
2013-10-19,64.0,50.2,36.0,-99.9,-99.9,-99.9,0,0,100,0.00,40.00,0,-999,0,0.03
2013-10-20,58.0,49.6,43.0,-99.9,-99.9,-99.9,0,0,100,0.00,40.00,0,-999,0,0.00
2013-10-21,64.0,47.5,33.0,-99.9,-99.9,-99.9,0,0,100,0.00,40.00,0,-999,0,0.00
2013-10-22,56.0,47.8,41.0,-99.9,-99.9,-99.9,0,0,100,0.00,40.00,0,-999,0,0.00
2013-10-23,51.0,42.1,32.0,-99.9,-99.9,-99.9,0,0,100,0.00,40.00,0,-999,0,0.00
2013-10-24,48.0,41.3,34.0,-99.9,-99.9,-99.9,0,0,100,0.00,40.00,0,-999,0,0.00
2013-10-25,47.0,36.8,28.0,-99.9,-99.9,-99.9,0,0,100,0.00,40.00,0,-999,0,0.00
2013-10-26,48.0,37.4,26.0,-99.9,-99.9,-99.9,0,0,100,0.00,40.00,0,-999,0,0.00
2013-10-27,53.0,42.4,32.0,-99.9,-99.9,-99.9,0,0,100,0.00,40.00,0,-999,0,0.00
2013-10-28,53.0,38.7,28.0,-99.9,-99.9,-99.9,0,0,100,0.00,40.00,0,-999,0,0.00
2013-10-29,45.0,31.6,21.0,-99.9,-99.9,-99.9,0,0,100,0.00,40.00,0,-999,0,0.00
2013-10-30,48.0,35.0,25.0,-99.9,-99.9,-99.9,0,0,100,0.00,40.00,0,-999,0,0.00
2013-10-31,58.0,37.6,28.0,-99.9,-99.9,-99.9,0,0,100,0.00,40.00,0,-999,0,0.00
2013-11-1,66.0,59.4,50.0,-99.9,-99.9,-99.9,0,0,100,0.00,40.00,0,-999,0,0.49
2013-11-2,62.0,49.7,39.0,-99.9,-99.9,-99.9,0,0,100,0.00,40.00,0,-999,0,0.05
2013-11-3,42.0,35.5,26.0,-99.9,-99.9,-99.9,0,0,100,0.00,40.00,0,-999,0,0.04
2013-11-4,39.0,28.2,21.0,-99.9,-99.9,-99.9,0,0,100,0.00,40.00,0,-999,0,0.00
2013-11-5,47.0,31.4,20.0,-99.9,-99.9,-99.9,0,0,100,0.00,40.00,0,-999,0,0.00
2013-11-6,58.0,43.6,30.0,-99.9,-99.9,-99.9,0,0,100,0.00,40.00,0,-999,0,0.00
2013-11-7,56.0,50.1,37.0,-99.9,-99.9,-99.9,0,0,100,0.00,40.00,0,-999,0,0.06
2013-11-8,44.0,35.0,26.0,-99.9,-99.9,-99.9,0,0,100,0.00,40.00,0,-999,0,0.04
2013-11-9,41.0,35.6,31.0,-99.9,-99.9,-99.9,0,0,100,0.00,40.00,0,-999,0,0.00
2013-11-10,42.0,36.6,32.0,-99.9,-99.9,-99.9,0,0,100,0.00,40.00,0,-999,0,0.09
2013-11-11,49.0,40.0,35.0,-99.9,-99.9,-99.9,0,0,100,0.00,40.00,0,-999,0,0.01
2013-11-12,42.0,30.2,26.0,-99.9,-99.9,-99.9,0,0,100,0.00,40.00,0,-999,0,0.00
2013-11-13,32.0,25.5,19.0,-99.9,-99.9,-99.9,0,0,100,0.00,40.00,0,-999,0,0.00
2013-11-14,46.0,33.4,24.0,-99.9,-99.9,-99.9,0,0,100,0.00,40.00,0,-999,0,0.00
2013-11-15,55.0,36.1,24.0,-99.9,-99.9,-99.9,0,0,100,0.00,40.00,0,-999,0,0.00
2013-11-16,57.0,39.1,31.0,-99.9,-99.9,-99.9,0,0,100,0.00,40.00,0,-999,0,0.00
2013-11-17,43.0,35.8,27.0,-99.9,-99.9,-99.9,0,0,100,0.00,40.00,0,-999,0,0.23
2013-11-18,61.0,50.4,43.0,-99.9,-99.9,-99.9,0,0,100,0.00,40.00,0,-999,0,0.54
2013-11-19,44.0,34.9,29.0,-99.9,-99.9,-99.9,0,0,100,0.00,40.00,0,-999,0,0.17
2013-11-20,37.0,29.4,23.0,-99.9,-99.9,-99.9,0,0,100,0.00,40.00,0,-999,0,0.00
2013-11-21,45.0,29.3,16.0,-99.9,-99.9,-99.9,0,0,100,0.00,40.00,0,-999,0,0.00
2013-11-22,37.0,34.5,31.0,-99.9,-99.9,-99.9,0,0,100,0.00,40.00,0,-999,0,0.18
2013-11-23,43.0,34.4,23.0,-99.9,-99.9,-99.9,0,0,100,0.00,40.00,0,-999,0,0.02
2013-11-24,24.0,19.0,15.0,-99.9,-99.9,-99.9,0,0,100,0.00,40.00,0,-999,0,0.01
2013-11-25,28.0,20.1,12.0,-99.9,-99.9,-99.9,0,0,100,0.00,40.00,0,-999,0,0.00
2013-11-26,34.0,29.4,25.0,-99.9,-99.9,-99.9,0,0,100,0.00,40.00,0,-999,0,0.09
2013-11-27,46.0,37.6,31.0,-99.9,-99.9,-99.9,0,0,100,0.00,40.00,0,-999,0,2.15
2013-11-28,33.0,25.9,16.0,-99.9,-99.9,-99.9,0,0,100,0.00,40.00,0,-999,0,0.03
2013-11-29,27.0,17.7,10.0,-99.9,-99.9,-99.9,0,0,100,0.00,40.00,0,-999,0,0.00
2013-11-30,28.0,18.1,5.0,-99.9,-99.9,-99.9,0,0,100,0.00,40.00,0,-999,0,0.00
2013-12-1,35.0,30.4,26.0,-99.9,-99.9,-99.9,0,0,100,0.00,40.00,0,-999,0,0.00
2013-12-2,40.0,34.8,32.0,-99.9,-99.9,-99.9,0,0,100,0.00,40.00,0,-999,0,0.01
2013-12-3,48.0,34.9,28.0,-99.9,-99.9,-99.9,0,0,100,0.00,40.00,0,-999,0,0.03
2013-12-4,39.0,31.8,26.0,-99.9,-99.9,-99.9,0,0,100,0.00,40.00,0,-999,0,0.02
2013-12-5,34.0,31.8,25.0,-99.9,-99.9,-99.9,0,0,100,0.00,40.00,0,-999,0,0.08
2013-12-6,45.0,38.8,32.0,-99.9,-99.9,-99.9,0,0,100,0.00,40.00,0,-999,0,0.11
2013-12-7,33.0,29.7,21.0,-99.9,-99.9,-99.9,0,0,100,0.00,40.00,0,-999,0,0.04
2013-12-8,27.0,23.0,18.0,-99.9,-99.9,-99.9,0,0,100,0.00,40.00,0,-999,0,0.01
2013-12-9,27.0,24.7,22.0,-99.9,-99.9,-99.9,0,0,100,0.00,40.00,0,-999,0,0.26
2013-12-10,31.0,26.2,19.0,-99.9,-99.9,-99.9,0,0,100,0.00,40.00,0,-999,0,0.04
2013-12-11,29.0,21.8,14.0,-99.9,-99.9,-99.9,0,0,100,0.00,40.00,0,-999,0,0.02
2013-12-12,21.0,13.1,6.0,-99.9,-99.9,-99.9,0,0,100,0.00,40.00,0,-999,0,0.01
2013-12-13,21.0,11.1,3.0,-99.9,-99.9,-99.9,0,0,100,0.00,40.00,0,-999,0,0.02
2013-12-14,11.0,6.5,1.0,-99.9,-99.9,-99.9,0,0,100,0.00,40.00,0,-999,0,0.21
2013-12-15,27.0,18.1,10.0,-99.9,-99.9,-99.9,0,0,100,0.00,40.00,0,-999,0,0.93
2013-12-16,24.0,17.2,2.0,-99.9,-99.9,-99.9,0,0,100,0.00,40.00,0,-999,0,0.01
2013-12-17,13.0,4.3,-8.0,-99.9,-99.9,-99.9,0,0,100,0.00,40.00,0,-999,0,0.24
2013-12-18,30.0,21.3,12.0,-99.9,-99.9,-99.9,0,0,100,0.00,40.00,0,-999,0,0.10
2013-12-19,40.0,29.6,22.0,-99.9,-99.9,-99.9,0,0,100,0.00,40.00,0,-999,0,0.00
2013-12-20,39.0,32.8,30.0,-99.9,-99.9,-99.9,0,0,100,0.00,40.00,0,-999,0,0.02
2013-12-21,44.0,36.0,33.0,-99.9,-99.9,-99.9,0,0,100,0.00,40.00,0,-999,0,0.15
2013-12-22,39.0,33.6,31.0,-99.9,-99.9,-99.9,0,0,100,0.00,40.00,0,-999,0,0.22
2013-12-23,34.0,31.5,30.0,-99.9,-99.9,-99.9,0,0,100,0.00,40.00,0,-999,0,0.39
2013-12-24,32.0,26.8,17.0,-99.9,-99.9,-99.9,0,0,100,0.00,40.00,0,-999,0,0.03
2013-12-25,19.0,11.6,5.0,-99.9,-99.9,-99.9,0,0,100,0.00,40.00,0,-999,0,0.00
2013-12-26,23.0,16.5,9.0,-99.9,-99.9,-99.9,0,0,100,0.00,40.00,0,-999,0,0.18
2013-12-27,30.0,23.1,15.0,-99.9,-99.9,-99.9,0,0,100,0.00,40.00,0,-999,0,0.02
2013-12-28,39.0,29.1,16.0,-99.9,-99.9,-99.9,0,0,100,0.00,40.00,0,-999,0,0.01
2013-12-29,35.0,30.4,27.0,-99.9,-99.9,-99.9,0,0,100,0.00,40.00,0,-999,0,0.65
2013-12-30,35.0,26.1,6.0,-99.9,-99.9,-99.9,0,0,100,0.00,40.00,0,-999,0,0.79
2013-12-31,16.0,8.0,-1.0,-99.9,-99.9,-99.9,0,0,100,0.00,40.00,0,-999,0,0.01
2014-1-1,20.0,12.4,6.0,-99.9,-99.9,-99.9,0,0,100,0.00,40.00,0,-999,0,0.01
2014-1-2,10.0,6.0,-2.0,-99.9,-99.9,-99.9,0,0,100,0.00,40.00,0,-999,0,0.52